Вернуться в каталог

STARLINK-5241

АктивенСвязьVLEO
NORAD 54204·PAYLOAD·🇺🇸 United States

Запущен Oct 28, 2022 с Vandenberg Space Force Base

Loading…

Ближайшие Пролёты (ближайшие 24 часа)

TLE

СвежийSource: CelesTrak SupGP

Эпоха: Sep 14, 2026, 21:44 UTC

1 54204C 22141AZ  26257.90604167  .00013090  00000+0  37452-3 0  2573
2 54204  53.1582 214.0797 0001250  96.8222 328.5965 15.35391867    15

Отслеживайте STARLINK-5241 в реальном времени с AllMySat

Download on the App Store